Wetbulb
60.39 56.52 54.21 56.42 58.05 57.57 56.99 54.92 53.50 56.33 58.11 55.61 56.77 57.10 62.10 63.80 63.75 64.60 66.09 67.52 68.16 69.94 71.34 72.89 73.99 74.72 72.05 75.76 74.20 77.20 78.21 78.95 77.76 77.39 75.95 75.71 75.25 76.22 76.90 76.83 76.01 77.66 76.67 74.44
57.55 54.32 57.89 58.90 58.64 56.73 55.05 53.80 53.73 56.31 57.77 56.75 56.77 56.89 61.76 63.08 64.07 65.26 65.19 66.31 67.21 68.24 69.17 72.15 73.64 74.07 74.30 75.26 75.52 77.13 78.14 78.98 77.82 77.55 77.37 77.45 76.38 76.14 76.04 76.24 78.47 78.77 75.23 76.94
55.42 56.50 58.56 58.01 56.75 54.29 54.12 53.73 53.58 53.62 56.46 57.40 56.40 58.43 59.12 59.93 61.65 65.42 66.85 67.24 68.57 68.81 69.07 69.52 70.57 72.33 75.12 75.85 77.23 76.57 78.94 79.65 78.73 78.72 77.80 79.05 79.11 78.53 77.98 74.72 76.03 76.94 77.55 77.49
56.56 58.75 56.76 56.36 54.98 55.37 52.62 56.58 55.36 53.16 52.62 49.98 56.98 50.54 53.68 55.73 57.94 61.49 65.48 65.78 66.56 67.33 69.78 69.91 70.49 71.92 72.20 75.75 76.32 77.40 78.93 79.48 79.21 79.43 77.16 76.79 75.64 73.97 74.73 75.65 75.77 76.93 75.03 75.30
54.17 55.51 55.55 54.29 54.57 56.48 54.46 56.71 55.37 54.38 52.49 52.46 54.92 52.38 53.96 55.23 53.45 57.10 63.17 64.96 66.24 66.74 69.91 69.78 70.30 72.37 74.29 75.38 76.72 78.14 79.98 79.85 78.94 78.53 77.04 75.29 75.66 75.35 77.28 77.99 77.95 77.00 76.76 76.28
55.74 58.59 57.37 55.61 56.66 57.18 57.18 55.05 54.61 54.11 52.21 48.14 53.19 50.98 49.46 52.40 55.57 59.58 63.29 64.54 66.32 66.27 69.99 70.94 72.15 73.39 74.79 76.00 77.08 77.68 80.08 80.36 80.21 79.52 78.73 77.63 75.63 73.87 73.56 73.47 70.80 72.80 76.28 76.57
53.90 55.09 56.85 56.95 54.52 57.08 55.30 52.52 47.94 47.65 47.18 47.73 53.54 53.77 53.75 57.91 60.70 62.06 63.16 64.26 66.60 67.54 68.14 70.46 71.83 72.89 74.44 74.74 75.52 76.59 79.12 79.63 80.64 79.88 78.80 78.31 77.62 75.65 73.11 72.25 71.17 71.00 71.58 74.37
49.50 47.90 54.20 56.14 54.87 53.88 54.07 53.18 48.94 45.20 46.39 48.49 54.99 50.93 55.66 61.47 63.04 63.90 64.72 65.50 66.74 67.18 68.65 70.44 72.53 73.22 73.78 74.10 75.02 76.05 77.39 77.53 78.14 77.17 77.70 77.35 77.03 74.54 72.97 71.74 71.42 72.08 71.45 71.63
50.79 50.38 56.08 56.50 57.04 56.41 54.04 52.25 56.36 51.11 52.16 49.92 53.01 55.74 58.39 58.53 62.55 63.24 64.33 65.26 65.91 66.91 68.34 69.62 71.55 72.74 73.45 74.46 75.78 76.23 76.41 76.30 76.36 76.26 75.96 74.37 73.03 72.47 70.78 71.26 72.55 72.66 73.86 73.81
54.08 50.83 55.45 56.21 57.58 57.93 56.54 58.31 52.44 52.29 48.20 46.51 50.57 51.98 48.47 54.26 60.45 62.71 63.36 64.93 66.68 67.88 68.60 69.53 71.02 72.18 73.37 74.02 74.93 75.75 76.40 76.26 75.39 73.91 74.43 72.72 71.21 70.03 70.13 70.67 70.60 71.21 72.95 74.10
55.06 55.79 53.15 58.30 55.57 54.41 54.93 54.19 54.92 54.03 52.66 45.14 44.32 48.21 56.36 55.70 60.95 62.41 63.47 66.16 67.02 67.80 68.68 69.70 71.08 72.53 73.13 73.81 73.85 74.01 74.01 74.38 74.34 74.01 74.00 73.93 71.50 71.43 69.82 68.95 70.57 72.20 72.23 73.40
55.33 55.01 53.53 54.86 58.02 58.76 57.83 56.33 56.15 52.06 49.53 53.28 52.33 47.00 60.09 60.82 63.18 63.75 64.97 66.95 68.01 69.21 69.83 70.48 71.23 72.32 72.95 74.09 74.07 74.34 74.58 74.04 74.85 75.41 74.10 72.37 71.97 71.04 69.27 68.57 69.76 72.10 71.78 72.67
55.40 53.14 51.37 51.66 56.57 58.20 56.16 56.53 56.76 55.87 55.54 52.93 50.91 53.09 62.54 62.55 62.83 63.65 65.92 68.50 69.56 69.96 70.36 71.12 72.18 73.01 73.53 74.31 76.03 75.38 74.94 75.12 74.90 76.77 74.22 73.94 72.99 70.87 70.60 71.67 72.99 74.02 74.71 74.78
62.79 54.61 53.20 51.11 52.02 57.58 55.85 56.25 56.64 55.04 51.43 51.43 52.94 53.73 59.75 61.84 62.80 64.18 67.47 68.75 69.28 70.88 72.16 72.18 71.12 73.36 74.24 75.34 76.31 76.68 76.75 77.34 77.31 76.68 76.05 75.57 74.47 73.87 72.98 73.84 74.18 74.46 75.53 75.52
57.31 53.60 55.77 56.90 55.55 56.47 55.93 56.04 54.61 53.31 54.31 51.55 53.10 53.18 60.30 62.59 63.50 65.25 68.08 69.64 69.26 69.51 69.81 71.39 71.27 72.46 73.75 73.85 75.00 75.10 76.01 77.35 77.52 75.93 76.42 75.92 76.56 76.97 75.76 74.45 74.91 75.38 75.26 75.65
57.99 55.27 57.04 54.79 55.54 56.59 54.39 55.42 55.54 55.44 54.96 54.91 54.57 56.97 63.76 64.19 65.49 66.45 68.22 68.30 68.96 69.20 69.39 70.71 71.13 71.36 71.40 71.72 71.72 72.63 73.46 74.16 75.35 74.37 74.16 75.76 76.05 76.01 76.19 76.62 76.26 76.66 76.54 75.78
56.46 54.89 55.42 52.43 55.53 54.40 51.04 55.74 56.28 56.63 56.58 55.19 52.68 61.92 64.77 63.77 64.25 66.93 67.86 68.16 68.45 69.09 69.52 70.20 70.17 70.56 71.27 71.10 72.59 71.77 73.09 74.42 74.29 74.08 74.41 74.79 74.87 74.57 75.17 75.34 75.36 75.20 74.86 76.08
57.50 59.50 57.74 51.84 53.53 46.68 56.22 59.74 58.56 58.25 57.95 58.57 57.52 60.66 63.09 65.13 66.09 67.88 69.09 69.08 68.77 68.52 69.34 70.32 70.48 70.36 70.77 70.69 70.86 72.93 72.91 73.60 74.44 74.18 73.96 74.33 74.67 73.57 73.66 74.09 73.72 73.31 74.01 74.23
60.54 58.21 55.15 50.00 46.39 49.71 55.86 57.19 55.71 56.81 55.86 58.53 57.90 62.79 63.82 65.06 65.79 66.87 69.01 70.50 69.77 69.89 70.07 70.06 70.08 69.47 72.06 70.77 72.94 73.05 72.71 74.14 73.46 72.91 73.85 74.71 74.69 73.75 73.02 72.41 72.99 73.80 73.29 72.82
60.25 59.68 54.81 51.62 47.43 44.20 53.86 59.56 60.39 59.86 52.29 61.16 62.00 62.95 63.62 63.89 59.40 62.95 68.50 68.45 69.22 69.67 69.71 68.86 68.29 68.52 68.99 69.98 69.45 70.19 71.52 72.55 72.86 73.83 73.69 73.82 74.53 73.55 72.52 72.10 72.05 72.57 72.77 71.36
54.24 55.58 53.79 53.90 51.62 53.24 59.15 60.44 61.32 52.23 57.32 63.87 63.36 63.66 64.11 63.51 66.80 68.47 68.29 69.11 69.67 69.40 69.16 69.53 69.20 68.46 70.22 71.46 71.30 69.86 69.48 68.86 71.89 71.98 72.54 73.07 73.11 72.82 72.37 71.68 71.90 71.78 71.46 71.61
49.25 49.47 53.18 54.86 52.34 50.05 62.48 62.00 57.18 63.40 65.43 65.84 64.60 65.19 66.40 67.83 67.85 68.87 68.95 68.79 68.82 68.69 67.47 67.20 67.53 68.70 68.94 70.20 70.73 69.63 70.46 71.96 72.03 71.53 70.88 71.27 71.74 70.95 69.49 70.74 71.29 71.41 70.93 69.67
47.97 54.09 55.44 55.96 56.42 63.91 63.35 62.93 66.10 65.84 65.55 66.23 67.40 67.52 67.39 67.20 67.04 66.60 64.63 67.23 66.54 66.27 66.58 66.76 68.40 68.93 70.08 71.06 70.26 69.28 71.44 71.98 71.07 70.34 69.33 68.94 69.34 68.94 68.89 68.50 67.86 67.54 68.35 68.04
58.40 61.24 57.98 57.88 59.16 61.46 63.00 64.36 65.08 65.19 64.58 67.09 67.58 67.12 67.20 66.55 66.04 65.13 65.30 65.94 65.66 66.08 66.00 66.53 67.24 67.45 68.06 70.20 70.38 70.96 70.70 68.99 70.16 68.92 68.35 67.92 67.26 66.56 66.71 66.21 65.73 65.17 65.10 65.08
58.71 60.61 57.47 57.50 59.80 60.40 61.49 62.70 62.76 64.63 65.64 65.45 65.88 65.38 64.40 64.20 63.99 64.03 64.45 65.72 65.27 66.49 66.46 66.82 67.26 66.92 67.18 68.94 69.49 68.78 69.23 69.54 68.11 67.44 66.82 66.41 65.94 65.73 65.95 66.14 64.87 65.01 66.40 64.88
58.65 58.55 54.81 54.15 60.40 60.91 62.31 63.16 64.17 63.43 63.53 63.79 63.82 63.53 63.52 63.43 62.89 63.42 63.56 65.68 67.03 66.63 67.31 67.05 67.52 66.97 67.73 67.61 67.60 68.43 69.46 69.03 67.75 66.24 64.95 64.38 63.93 64.31 64.45 63.98 64.46 60.07 54.08 52.13
MSLP
1002.02 1001.68 1000.73 999.64 999.06 999.51 999.74 999.43 999.26 999.13 999.61 1000.39 1000.33 1000.25 1000.57 1001.42 1001.67 1001.83 1001.63 1002.16 1003.51 1003.83 1003.72 1003.49 1003.46 1005.12 1006.19 1005.65 1007.68 1007.43 1008.35 1009.89 1010.79 1011.29 1011.83 1012.10 1012.05 1012.11 1012.21 1012.28 1012.09 1012.54 1013.97 1014.08
1001.21 1000.74 999.85 999.27 999.22 999.63 999.67 999.53 999.09 998.62 999.27 1000.30 1000.66 1000.94 1001.48 1002.21 1002.57 1002.52 1002.56 1002.54 1002.72 1003.22 1003.38 1003.48 1003.55 1004.37 1006.39 1006.63 1007.25 1007.04 1008.36 1009.71 1010.60 1011.07 1011.27 1011.26 1011.50 1011.58 1011.70 1011.64 1011.44 1011.70 1012.67 1013.60
1000.10 999.40 999.36 998.89 999.11 999.51 999.48 999.10 998.56 998.70 999.25 999.95 1000.82 1002.65 1004.73 1006.23 1006.31 1003.94 1003.28 1003.04 1003.15 1003.50 1003.61 1003.51 1003.66 1003.94 1004.73 1005.63 1006.29 1007.21 1008.25 1009.29 1010.27 1010.81 1011.14 1011.07 1011.20 1011.19 1011.36 1011.43 1011.39 1011.43 1011.16 1011.87
999.58 998.61 998.61 998.98 999.17 999.15 998.58 998.39 998.38 998.99 999.66 999.99 1000.81 1004.32 1008.01 1009.31 1008.57 1005.77 1003.37 1003.29 1003.36 1003.64 1003.84 1003.93 1003.74 1004.19 1004.53 1005.21 1006.06 1007.14 1008.23 1009.12 1010.12 1010.99 1011.45 1011.52 1011.14 1011.09 1010.86 1010.72 1010.81 1010.61 1011.11 1010.53
999.19 998.71 998.71 999.02 998.90 998.97 998.66 998.57 999.10 999.17 999.50 999.95 1002.13 1005.11 1008.43 1009.38 1007.51 1006.18 1004.20 1003.42 1003.63 1003.68 1003.95 1004.38 1004.36 1004.50 1004.59 1005.20 1006.03 1007.11 1008.06 1009.05 1009.97 1010.80 1011.07 1011.13 1011.41 1011.22 1010.73 1010.35 1010.42 1010.69 1010.94 1011.03
998.76 998.61 998.53 998.68 998.74 998.71 998.86 999.02 999.02 999.00 999.36 999.90 1002.21 1005.18 1007.20 1008.49 1006.52 1005.57 1003.72 1003.57 1003.39 1003.76 1004.17 1004.74 1005.20 1005.24 1005.58 1005.98 1006.47 1007.24 1008.13 1008.99 1009.78 1010.24 1010.65 1010.86 1010.89 1010.96 1010.90 1010.89 1011.71 1012.27 1011.45 1011.29
999.10 998.47 998.47 998.67 998.44 998.28 998.79 998.73 998.19 998.31 998.67 999.87 1001.41 1003.19 1004.41 1004.62 1004.62 1003.04 1003.09 1003.26 1003.30 1003.57 1004.07 1004.95 1005.55 1005.89 1006.32 1006.72 1007.15 1007.80 1008.59 1009.27 1009.68 1010.09 1010.38 1010.49 1010.45 1010.52 1010.36 1010.65 1011.76 1010.99 1013.10 1011.71
998.24 998.25 998.02 998.29 998.41 998.06 998.02 997.73 997.65 997.88 998.61 1000.73 1000.89 1002.41 1003.81 1004.08 1003.37 1003.04 1002.67 1002.85 1003.13 1003.61 1004.37 1005.07 1005.94 1006.59 1006.91 1007.32 1007.74 1008.22 1008.87 1009.44 1009.85 1010.22 1010.44 1010.48 1010.30 1010.11 1010.23 1010.35 1010.91 1011.96 1012.10 1011.89
996.82 996.85 996.66 997.45 997.84 998.24 997.79 997.48 997.24 998.07 998.19 999.55 1002.19 1004.27 1005.48 1005.95 1004.24 1003.18 1002.97 1002.91 1003.19 1003.59 1004.19 1005.04 1005.72 1006.47 1007.05 1007.57 1008.11 1008.60 1009.21 1009.71 1010.14 1010.26 1010.78 1010.96 1010.98 1010.29 1010.39 1010.35 1010.67 1011.46 1011.65 1011.37
996.97 996.63 996.69 997.02 997.49 997.45 997.40 997.50 997.27 997.24 999.15 1001.70 1004.27 1006.22 1008.78 1008.31 1004.63 1003.04 1002.64 1002.86 1003.28 1003.77 1004.39 1005.18 1005.90 1006.61 1007.06 1007.52 1008.18 1008.66 1009.18 1009.60 1009.92 1010.49 1010.74 1011.16 1011.48 1010.98 1010.63 1011.13 1011.42 1011.62 1011.66 1011.58
997.33 997.36 998.55 998.11 997.34 997.12 997.14 997.51 997.42 997.74 1000.33 1002.86 1006.07 1007.44 1007.15 1005.08 1003.60 1002.03 1002.38 1002.47 1002.85 1003.48 1004.38 1005.41 1006.22 1006.85 1007.27 1007.83 1008.42 1008.88 1009.25 1009.45 1009.76 1010.19 1010.84 1011.23 1011.66 1011.75 1011.92 1011.82 1012.13 1012.04 1011.97 1011.66
997.45 996.90 998.44 998.10 997.18 997.08 996.89 997.39 997.73 998.42 1000.41 1001.84 1002.28 1005.16 1003.67 1003.81 1002.11 1002.09 1002.34 1002.53 1002.96 1003.64 1004.72 1005.74 1006.41 1007.05 1007.62 1008.17 1008.71 1009.03 1009.32 1009.39 1009.39 1009.85 1010.71 1011.16 1011.55 1011.92 1012.34 1012.68 1012.38 1012.31 1012.36 1011.63
997.52 997.58 998.37 999.70 998.40 997.97 997.70 997.31 997.25 998.69 998.52 999.82 1000.96 1002.73 1001.37 1001.44 1001.83 1002.21 1002.46 1003.44 1004.12 1004.63 1005.32 1005.87 1006.78 1007.55 1008.00 1008.63 1009.10 1009.27 1009.40 1009.41 1009.51 1009.46 1009.96 1010.43 1011.02 1011.43 1011.68 1011.78 1011.71 1011.67 1011.38 1010.83
997.80 997.77 998.15 999.94 1001.78 1000.77 999.28 997.89 997.53 997.86 998.11 998.83 999.81 999.93 1000.39 1001.09 1002.05 1002.31 1002.68 1003.45 1004.12 1004.91 1005.74 1006.90 1007.21 1007.95 1008.70 1009.10 1009.31 1009.40 1009.60 1009.70 1009.81 1009.92 1009.96 1010.12 1010.63 1010.87 1010.97 1010.99 1011.01 1010.88 1010.78 1010.46
998.07 998.34 999.12 1001.10 1002.21 1002.15 1000.63 999.48 998.34 998.33 998.62 998.95 999.08 999.52 1000.06 1000.90 1001.73 1002.31 1002.98 1003.51 1004.40 1005.19 1006.18 1006.70 1007.55 1008.42 1009.05 1009.47 1009.69 1009.86 1009.97 1010.08 1010.25 1010.28 1010.37 1010.46 1010.53 1010.42 1010.55 1010.48 1010.35 1010.29 1010.25 1010.12
998.47 998.80 999.88 1001.13 1001.57 1001.71 1001.03 999.76 998.78 998.36 998.30 998.39 998.85 999.72 1000.56 1001.03 1001.77 1002.28 1002.90 1003.72 1004.84 1005.82 1006.48 1007.13 1008.09 1008.78 1009.23 1009.63 1009.89 1010.15 1010.29 1010.43 1010.49 1010.51 1010.56 1010.54 1010.45 1010.32 1010.35 1010.26 1010.21 1010.01 1009.89 1009.93
998.89 999.15 999.89 1001.60 1002.73 1003.11 1002.41 1001.06 999.14 998.46 998.17 998.54 998.95 999.85 1000.66 1001.60 1002.27 1002.60 1003.23 1003.73 1004.87 1005.88 1006.62 1007.29 1008.00 1008.75 1009.33 1009.69 1009.97 1010.21 1010.50 1010.62 1010.72 1010.76 1010.66 1010.58 1010.58 1010.51 1010.40 1010.22 1010.15 1010.10 1009.97 1009.84
999.51 1000.45 1002.02 1003.92 1004.53 1005.07 1002.59 1001.33 1000.89 999.44 998.84 998.64 999.04 999.49 1000.37 1001.41 1002.35 1002.81 1003.25 1003.70 1004.77 1005.62 1006.37 1007.20 1007.68 1008.27 1008.80 1008.99 1009.58 1009.99 1010.16 1010.41 1010.56 1010.64 1010.60 1010.54 1010.53 1010.56 1010.57 1010.51 1010.38 1010.22 1010.12 1010.01
999.79 1001.22 1002.92 1004.71 1006.30 1006.58 1003.37 1002.31 1001.70 1000.53 999.15 998.92 998.94 999.83 1000.85 1001.70 1002.33 1002.86 1003.12 1003.54 1004.17 1005.07 1006.19 1007.01 1007.41 1007.84 1008.61 1008.93 1009.18 1009.57 1009.85 1010.02 1010.13 1010.28 1010.30 1010.24 1010.30 1010.41 1010.50 1010.45 1010.41 1010.31 1010.18 1009.93
1001.47 1001.45 1002.83 1004.71 1005.60 1005.70 1002.79 1001.23 1000.09 999.81 999.49 999.07 999.34 1000.03 1001.03 1001.98 1002.60 1002.69 1003.69 1003.81 1005.05 1005.54 1005.98 1006.78 1007.19 1007.57 1007.92 1008.59 1009.06 1009.42 1009.75 1009.89 1009.94 1010.00 1010.14 1010.20 1010.18 1010.28 1010.31 1010.25 1010.19 1010.02 1009.96 1009.79
1004.71 1004.12 1003.06 1002.98 1003.50 1002.90 1001.90 1000.20 999.75 1000.17 1000.87 1000.15 1000.25 1000.68 1001.32 1002.29 1003.14 1004.40 1004.85 1003.84 1005.32 1005.84 1006.22 1006.96 1007.52 1007.91 1008.20 1008.74 1009.17 1009.59 1009.79 1010.03 1010.15 1010.19 1010.31 1010.35 1010.29 1010.27 1010.17 1009.94 1009.79 1009.73 1009.56 1009.35
1007.29 1007.68 1003.22 1001.92 1001.44 1001.64 1001.59 1000.52 1000.45 1001.18 1000.89 1000.86 1001.17 1001.37 1002.52 1003.39 1003.48 1003.89 1004.15 1004.73 1004.93 1005.87 1006.86 1007.57 1008.02 1008.44 1008.85 1009.15 1009.46 1009.88 1010.32 1010.53 1010.56 1010.64 1010.64 1010.61 1010.46 1010.24 1009.86 1009.74 1009.49 1009.33 1009.23 1009.07
1008.07 1006.41 1003.43 1001.74 1001.58 1001.53 1001.20 1001.33 1001.53 1001.34 1001.32 1001.70 1002.06 1002.30 1002.64 1003.31 1004.19 1004.95 1007.52 1003.98 1006.63 1006.44 1007.51 1008.11 1008.64 1009.02 1009.36 1009.55 1009.88 1010.16 1010.41 1010.63 1010.71 1010.83 1010.88 1010.87 1010.69 1010.36 1010.01 1009.69 1009.30 1009.00 1008.68 1008.37
1004.09 1001.56 1001.97 1001.93 1001.33 1001.33 1001.40 1001.70 1002.23 1002.17 1001.89 1001.93 1002.38 1002.97 1003.51 1004.05 1004.95 1005.40 1005.56 1006.19 1006.58 1007.52 1008.38 1008.93 1009.30 1009.56 1009.81 1010.00 1010.10 1010.27 1010.39 1010.46 1010.57 1010.62 1010.63 1010.54 1010.33 1010.01 1009.65 1009.16 1008.71 1008.26 1007.85 1007.55
1001.50 1001.89 1001.83 1002.04 1001.79 1001.65 1001.69 1002.06 1002.28 1002.53 1002.79 1002.80 1003.19 1003.72 1004.27 1004.79 1005.41 1006.05 1006.65 1007.29 1007.90 1008.55 1009.04 1009.53 1009.97 1010.16 1010.26 1010.32 1010.42 1010.46 1010.49 1010.47 1010.47 1010.45 1010.36 1010.21 1009.88 1009.40 1008.90 1008.56 1008.12 1007.65 1007.18 1006.92
1001.46 1001.37 1001.53 1001.86 1002.31 1002.46 1002.43 1002.55 1002.70 1003.06 1003.29 1003.52 1003.91 1004.51 1005.24 1005.89 1006.45 1006.97 1007.60 1008.22 1008.79 1009.40 1009.76 1010.00 1010.23 1010.32 1010.33 1010.48 1010.46 1010.39 1010.30 1010.24 1010.21 1010.17 1009.97 1009.81 1009.62 1009.12 1008.66 1008.29 1007.64 1007.18 1006.71 1006.38
Wind_Speed
15 13 16 19 15 7 2 8 8 7 8 3 10 4 12 6 4 1 2 3 20 19 9 12 13 17 14 12 5 12 9 9 6 6 7 7 7 6 5 6 7 7 11 12
16 15 20 17 4 5 7 9 13 8 8 6 9 3 10 8 5 3 2 4 4 5 2 9 12 9 21 12 18 11 11 11 9 7 7 7 7 7 5 5 6 7 7 11
18 19 15 15 1 7 9 14 15 6 1 8 10 7 20 32 31 3 3 3 9 5 2 2 8 8 12 14 12 14 11 12 11 9 7 4 4 4 2 3 3 7 12 10
17 18 12 2 10 10 16 6 10 3 9 9 15 4 14 14 18 17 7 8 8 1 8 5 7 9 10 14 12 15 12 12 9 9 9 9 7 8 6 7 8 8 6 9
11 17 8 11 12 12 15 6 9 12 12 15 13 7 3 4 13 23 10 8 10 3 10 3 5 3 4 4 8 10 11 11 8 8 7 7 9 8 6 3 6 8 9 8
16 12 10 9 11 11 6 12 13 15 13 13 16 10 6 9 14 18 9 7 7 7 12 8 6 7 6 4 4 7 8 5 7 8 10 10 11 10 11 6 4 11 4 8
13 14 9 12 14 13 9 14 12 11 11 2 12 10 9 21 20 10 13 8 7 10 7 10 8 6 7 6 5 5 6 4 4 3 5 8 10 12 11 10 5 4 10 5
12 13 16 12 13 13 15 16 10 7 7 11 12 9 3 12 10 10 13 11 11 11 8 11 9 7 6 5 5 3 5 3 3 3 6 8 11 7 6 8 7 5 4 5
11 12 15 17 13 13 16 15 18 11 20 6 10 8 21 31 6 12 11 11 10 8 11 11 11 9 8 7 5 5 5 2 3 3 6 8 11 11 5 5 3 1 5 7
19 9 15 14 12 11 15 13 15 8 5 5 4 6 9 25 12 12 11 12 11 10 11 10 9 9 7 7 6 5 4 3 2 4 4 7 7 10 9 5 3 5 6 11
17 4 11 20 9 14 10 12 14 7 7 7 9 7 15 22 20 12 8 11 13 13 12 10 9 8 7 7 5 5 3 3 3 3 4 5 5 4 4 4 4 5 8 13
17 11 18 16 14 10 13 6 11 8 9 11 10 11 24 22 8 10 10 9 11 13 13 9 8 8 7 6 4 4 2 3 2 6 3 3 5 3 3 6 6 7 9 11
14 12 3 10 13 5 9 13 2 7 10 6 9 4 8 11 10 5 13 11 8 9 10 12 9 5 6 6 4 3 2 3 6 2 5 7 6 8 8 8 9 7 8 7
5 14 12 10 3 20 14 10 4 8 8 12 12 6 13 15 10 5 12 11 12 8 13 9 8 9 7 5 4 4 5 7 6 7 7 4 6 6 6 7 6 6 6 7
9 14 4 19 25 25 17 16 8 4 5 6 12 10 15 10 14 11 10 11 9 8 8 9 10 8 7 6 5 5 5 5 4 2 3 5 6 3 4 6 7 7 7 8
14 12 3 4 2 11 16 18 13 8 10 8 4 8 11 8 11 11 11 10 12 10 9 11 8 7 6 6 6 5 5 5 5 4 4 5 5 6 5 4 5 5 4 5
17 14 12 1 9 5 18 21 12 9 3 3 7 14 12 8 5 9 9 9 14 9 8 10 10 8 5 5 4 4 4 4 5 5 5 5 6 6 6 6 5 5 6 5
13 9 5 5 10 10 6 12 16 21 10 8 7 5 8 11 8 7 8 11 12 9 10 7 7 9 9 8 7 4 3 4 3 3 3 4 4 5 6 6 6 6 5 5
5 5 6 5 5 15 31 6 7 24 5 5 7 12 9 8 5 7 9 14 12 13 9 6 6 6 4 1 4 5 3 3 4 4 4 3 3 4 6 6 6 5 6 6
19 10 4 4 6 4 15 25 3 7 2 11 9 9 11 8 7 6 9 12 10 9 7 4 1 6 9 9 5 5 6 6 6 4 4 5 5 5 7 8 7 6 6 7
6 10 9 9 6 9 5 15 8 4 6 9 7 5 7 7 7 7 10 10 8 7 6 1 1 4 4 6 5 5 7 7 6 6 6 6 6 6 8 9 8 7 7 8
4 6 8 6 10 1 10 11 4 5 5 9 3 5 14 12 8 5 7 8 8 5 3 3 3 5 8 7 4 3 6 7 7 8 8 8 8 8 10 10 9 9 8 10
9 18 12 6 6 3 3 4 7 9 5 3 6 6 6 9 9 11 11 14 6 7 5 5 5 5 4 5 6 2 3 4 5 6 8 9 10 11 11 11 12 10 11 10
28 3 1 6 5 9 10 7 4 5 6 6 5 3 4 7 9 2 7 10 10 8 8 8 8 7 7 6 6 1 3 3 4 7 8 9 10 10 11 11 11 11 10 10
5 2 1 3 9 8 3 4 4 5 5 3 8 7 7 6 8 9 9 8 6 6 5 5 7 7 8 7 7 8 8 8 8 9 10 10 10 12 9 8 9 10 9 10
8 9 6 4 9 6 6 5 2 2 1 2 3 6 3 4 5 6 6 6 7 7 5 5 6 7 7 8 9 9 8 8 9 9 8 9 10 10 8 10 10 12 13 15
Wind_Direction
209 226 230 239 229 104 297 328 316 263 114 273 293 307 122 91 118 68 271 200 146 206 207 180 203 177 53 198 88 157 165 154 170 193 188 206 232 224 229 193 220 200 146 164
222 222 239 248 89 321 262 243 262 235 147 195 252 333 79 97 70 72 85 222 105 105 233 180 206 197 174 187 175 146 176 160 181 218 219 205 202 224 207 203 222 180 205 191
235 209 234 254 161 226 242 256 264 355 137 221 244 84 37 355 343 315 114 243 111 108 353 239 209 260 180 171 160 166 181 168 181 211 229 221 246 235 156 194 214 200 208 202
224 258 192 239 241 245 250 270 356 305 260 269 264 133 46 0 307 323 165 44 102 191 98 347 342 195 239 177 178 172 179 169 179 192 246 253 234 231 234 203 215 217 135 258
204 249 172 242 250 225 266 355 310 297 274 260 82 78 275 295 324 288 292 138 101 311 89 34 3 352 141 182 162 156 161 170 179 200 230 251 246 253 259 225 206 198 194 180
266 204 265 235 243 255 308 286 277 248 240 256 140 130 216 221 202 253 127 126 121 99 105 80 43 57 71 60 110 128 135 148 175 198 209 231 244 246 244 270 30 321 239 177
225 263 215 261 238 234 237 250 257 238 225 332 314 157 201 224 226 157 146 134 116 104 106 87 82 93 119 116 118 112 120 156 221 213 259 262 260 262 241 200 186 209 296 318
206 213 235 195 240 257 226 247 267 285 291 220 243 71 188 208 153 113 121 134 125 115 106 103 107 118 125 146 161 127 105 188 215 286 273 273 278 280 223 196 178 174 249 345
211 213 207 199 211 219 250 250 267 270 256 224 46 30 21 345 194 135 130 125 111 112 119 123 126 124 122 134 137 136 143 163 201 260 16 352 329 306 207 164 185 267 261 254
278 284 153 190 217 239 269 285 296 266 6 64 32 69 138 264 259 151 149 131 123 131 115 107 103 114 134 124 125 108 102 161 6 41 15 31 4 39 54 33 6 305 308 299
257 280 329 303 196 236 207 241 259 313 127 105 352 307 208 209 233 137 131 151 140 131 116 108 110 120 113 93 95 106 169 183 200 162 50 42 68 60 77 132 248 262 306 289
240 272 178 244 219 221 278 357 303 286 39 220 227 224 247 212 170 126 165 93 96 104 108 111 115 112 114 99 115 113 47 335 294 113 133 126 126 161 197 293 276 243 242 267
227 255 220 349 317 200 255 273 207 212 251 278 53 44 138 132 110 145 124 112 102 105 134 138 107 88 96 81 50 35 17 11 351 137 210 181 192 192 225 232 226 240 261 283
282 268 275 151 240 304 304 318 326 315 317 350 132 243 150 130 135 148 120 147 142 122 88 89 82 92 82 90 82 56 46 28 24 3 346 359 202 221 237 261 269 270 276 280
239 248 284 140 179 224 274 271 280 251 309 308 332 335 121 135 143 154 144 116 125 120 105 123 111 104 107 92 78 71 62 70 68 24 347 353 336 303 278 292 293 286 280 283
224 241 135 75 138 314 227 248 249 271 263 256 277 75 75 107 126 144 142 144 119 124 123 104 109 129 119 115 99 72 61 54 41 39 37 25 17 9 11 351 343 343 320 295
226 231 236 91 165 29 307 324 292 282 70 3 305 102 118 103 109 140 150 161 132 125 130 140 150 138 134 136 133 117 71 38 17 2 359 11 359 355 357 349 343 348 348 341
234 94 48 45 21 291 315 34 340 297 315 284 285 124 108 125 145 160 162 140 140 142 135 147 172 150 188 185 128 134 177 173 232 276 282 300 332 341 343 341 336 344 338 329
136 82 113 126 106 307 283 327 206 260 347 310 234 105 108 105 164 146 194 152 155 136 144 172 168 159 107 219 207 194 219 266 223 258 263 293 312 312 311 312 313 317 312 320
345 130 201 128 139 220 263 249 83 45 286 345 130 126 136 140 229 239 183 102 128 137 152 158 182 193 207 188 246 159 215 237 242 271 14 358 318 298 301 302 298 300 295 289
10 338 223 187 190 211 202 310 87 250 57 30 61 102 162 126 97 121 154 153 144 129 104 86 289 294 337 53 38 359 348 326 23 9 344 325 309 305 289 275 274 277 276 274
22 6 268 234 272 129 351 354 338 78 92 30 24 27 100 117 113 143 154 123 110 87 75 41 2 19 1 6 4 2 358 14 6 345 329 318 316 309 308 312 305 293 287 286
179 198 254 348 21 166 127 48 31 16 64 96 26 34 6 105 88 59 7 63 60 62 31 7 12 5 331 329 66 37 285 323 303 293 302 302 301 296 291 285 283 282 271 261
217 162 298 329 17 27 46 64 64 339 326 91 137 94 39 103 101 330 53 53 38 26 20 358 346 344 353 345 355 355 251 267 302 302 298 295 292 292 286 280 277 276 275 274
6 107 239 277 267 276 215 230 335 99 3 63 72 66 51 41 45 41 42 36 22 9 350 10 359 338 327 337 353 348 338 330 311 299 295 289 280 279 289 289 284 283 286 275
310 314 258 247 63 2 55 32 130 359 178 311 125 126 110 66 4 21 20 16 39 36 343 308 313 324 342 333 317 310 297 292 293 294 295 302 303 290 306 312 307 296 276 279